Regional Weather Roundup
Issued by NWS

Home | Current Version | Previous Version | Text Only | Print | Product List | Glossary Off
Versions: 1 2 3 4 5 6 7 8 9 10 11 12 13 14 15 16 17 18 19 20 21 22 23 24 25 26 27 28 29 30 31 32 33 34 35 36 37 38 39 40 41 42 43 44 45 46 47 48 49 50

000
ASUS43 KOAX 220702
RWRNE

WEATHER ROUNDUP FOR NEBRASKA
NATIONAL WEATHER SERVICE OMAHA NE
200 AM CDT FRI SEP 22 2017

NOTES: SATELLITE DATA IS BEING USED TO AUGMENT CLOUD COVER ABOVE
       12000 FEET.
       "FAIR" INDICATES FEW OR NO CLOUDS BELOW 12,000 FEET WITH NO
       SIGNIFICANT WEATHER AND/OR OBSTRUCTIONS TO VISIBILITY.


NEZ001>004-019>022-054>056-220800-
NEBRASKA PANHANDLE

CITY           SKY/WX    TMP DP  RH WIND       PRES   REMARKS
SCOTTSBLUFF    CLEAR     59  40  49 CALM      29.63R
ALLIANCE       CLEAR     54  42  64 N13       29.64R
CHADRON        CLEAR     56  39  53 NE12      29.70R
GORDON         FAIR      57  43  59 N15       29.66R
KIMBALL        CLOUDY    54  31  42 S8        29.67R
SIDNEY         CLEAR     54  32  43 S9        29.65R
$$

NEZ057>060-069>072-079>082-220800-
SOUTHWEST NEBRASKA

CITY           SKY/WX    TMP DP  RH WIND       PRES   REMARKS
NORTH PLATTE   CLEAR     77  59  53 S21G30    29.64F
IMPERIAL       CLEAR     70  40  33 S13       29.65S
LEXINGTON      CLEAR     81  66  60 S21G30    29.69S
MCCOOK         LGT RAIN  80  65  59 S23G33    29.67R
OGALLALA       CLEAR     66  40  38 S13G18    29.62S
$$

NEZ005>010-023>029-035>040-094-220800-
NORTH CENTRAL NEBRASKA

CITY           SKY/WX    TMP DP  RH WIND       PRES   REMARKS
VALENTINE      CLEAR     71  51  49 SE18      29.60S
AINSWORTH      CLEAR     73  59  62 S17G23    29.64S
BROKEN BOW     CLEAR     76  62  62 S17       29.69S
O`NEILL        CLEAR     80  69  70 S18       29.69S
ORD            CLEAR     78  65  63 S15G22    29.68S
THEDFORD       CLEAR     75  52  44 S18       29.65S
$$

NEZ041-046>049-061>064-073>077-083>087-220800-
SOUTH CENTRAL NEBRASKA

CITY           SKY/WX    TMP DP  RH WIND       PRES   REMARKS
GRAND ISLAND   CLEAR     80  70  71 S21G28    29.75R
AURORA         CLEAR     78  71  78 S14G20    29.77S
HASTINGS       CLEAR     81  68  64 S18G30    29.77R
HEBRON         PTCLDY    81  71  70 S13G23    29.80S
HOLDREGE       CLEAR     79  65  63 S17G25    29.73R
KEARNEY        CLEAR     79  68  69 S22G28    29.73R
YORK           PTCLDY    81  72  74 S14G24    29.79R
$$

NEZ011>018-030>034-042>045-220800-
NORTHEAST NEBRASKA

CITY           SKY/WX    TMP DP  RH WIND       PRES   REMARKS
NORFOLK        PTCLDY    79  71  76 S18G26    29.74S
ALBION         PTCLDY    80  72  76 S15G22    29.74S
BLAIR          PTCLDY    80  72  76 S15       29.82R
COLUMBUS       PTCLDY    80  71  74 S20       29.76S
FREMONT        CLEAR     80  70  72 SE12G20   29.80R
TEKAMAH        CLEAR     79  71  76 S12       29.79R
WAYNE          CLEAR     78  75  91 S14       29.75R
$$

NEZ050>053-065>068-078-088>093-220800-
SOUTHEAST NEBRASKA

CITY           SKY/WX    TMP DP  RH WIND       PRES   REMARKS
LINCOLN        CLEAR     81  71  71 S16G25    29.80R
OMAHA EPPLEY   PTCLDY    80  72  76 S17       29.82R
BEATRICE       CLEAR     81  71  71 S15       29.82R
FALLS CITY     CLEAR     80  71  74 S12       29.86R
NEBRASKA CITY  CLEAR     78  74  90 S12       29.85R
PLATTSMOUTH    CLEAR     78  73  83 SE12      29.84R
$$

NEZ044-045-051>053-067-220800-
OMAHA AREA

CITY           SKY/WX    TMP DP  RH WIND       PRES   REMARKS
OMAHA EPPLEY   PTCLDY    80  72  76 S17       29.82R
BLAIR          PTCLDY    80  72  76 S15       29.82R
FREMONT        CLEAR     80  70  72 SE12G20   29.80R
MILLARD        PTCLDY    81  73  76 SE10      29.82R
OFFUTT AFB     PTCLDY    78  72  81 SE10      29.82R
PLATTSMOUTH    CLEAR     78  73  83 SE12      29.84R
WAHOO          FAIR      79  71  75 S8G17     29.80R
$$



USA.gov is the U.S. government's official web portal to all federal, state and local government web resources and services.